Skip Page Navigation
NASA JPL Caltech
NASA Logo - Jet Propulsion Laboratory + View the NASA Portal
+ Center for Near-Earth Object Studies
JPL Home Earth Solar System Stars & Galaxies Technology
JPL Solar System Dynamics
BODIES ORBITS EPHEMERIDES TOOLS PHYSICAL DATA DISCOVERY FAQ SITE MAP
JPL Small-Body Database Browser
Search: [ help ]  
80683 (2000 BP30)
Classification: Main-belt Asteroid          SPK-ID: 2080683
Ephemeris | Orbit Diagram | Orbital Elements | Mission Design | Physical Parameters | Discovery Circumstances ]

[ show orbit diagram ]
Orbital Elements at Epoch 2459000.5 (2020-May-31.0) TDB
Reference: JPL 24 (heliocentric ecliptic J2000)
 Element Value Uncertainty (1-sigma)   Units 
e .1349451609305962 3.9464e-08  
a 2.189099287865788 7.4663e-09 au
q 1.893690932171686 8.6655e-08 au
i 3.212222552427955 3.4258e-06 deg
node 107.6508466363405 8.452e-05 deg
peri 249.3774426769062 8.5885e-05 deg
M 204.0129080207934 1.6786e-05 deg
tp 2459513.104928409268
(2021-Oct-25.60492841)
5.5658e-05 TDB
period 1183.032338675406
3.24
6.0524e-06
1.657e-08
d
yr
n .3043027550735238 1.5568e-09 deg/d
Q 2.484507643559891 8.4739e-09 au
  Orbit Determination Parameters
   # obs. used (total)      970  
   data-arc span      8477 days (23.21 yr)  
   first obs. used      1997-03-06  
   last obs. used      2020-05-21  
   planetary ephem.      DE431  
   SB-pert. ephem.      SB431-N16  
   condition code      0  
   norm. resid. RMS      .50424  
   source      ORB  
   producer      Otto Matic  
   solution date      2020-Nov-12 21:18:28  

Additional Information
 Earth MOID = .892119 au 
 Jupiter MOID = 2.94064 au 
 T_jup = 3.660 
[ show covariance matrix ]

Ephemeris | Orbit Diagram | Orbital Elements | Mission Design | Physical Parameters | Discovery Circumstances ]

Physical Parameter Table
Parameter Symbol Value Units Sigma Reference Notes
absolute magnitude H 16.1   n/a MPO453229  

80683 (2000 BP30)          Discovered 2000-Jan-28 by Spacewatch at Kitt Peak
Reference: 20040504/Numbers.arcLast Updated: 2004-07-16
Ephemeris | Orbit Diagram | Orbital Elements | Mission Design | Physical Parameters | Discovery Circumstances ]
ABOUT SSD CREDITS/AWARDS PRIVACY/COPYRIGHT GLOSSARY LINKS
FirstGov 2020-Dec-01 19:06 UT
(server date/time)  
NASA Home Page
Site Manager:   Ryan S. Park
Webmaster  Alan B. Chamberlin